Weather History for Chillicothe, MO

Change the Weather History Date:

Tuesday, April 9, 2013

  Actual Average (KIRK) Record (KIRK)
Temperature  
Mean Temperature 70 °F 50 °F  
Max Temperature 75 °F 61 °F 84 °F (2011)
Min Temperature 66 °F 39 °F 19 °F (1928)
Degree Days  
Heating Degree Days 0 15  
Month to date heating degree days 150  
Since 1 July heating degree days 5437  
Cooling Degree Days 6 0  
Month to date cooling degree days 0  
Year to date cooling degree days 0  
Growing Degree Days 20 (Base 50)    
Moisture  
Dew Point 59 °F    
Average Humidity 67    
Maximum Humidity 75    
Minimum Humidity 58    
Precipitation  
Precipitation 0.00 in 0.09 in 1.10 in (1942)
Month to date precipitation 0.70  
Year to date precipitation 6.05  
Sea Level Pressure  
Sea Level Pressure 29.71 in    
Wind  
Wind Speed 10 mph (South)    
Max Wind Speed 21 mph    
Max Gust Speed 29 mph    
T = Trace of Precipitation, MM = Missing Value Source: NWS Daily Summary

Daily Weather History Graph

Daily Weather History Graph

Search for Another Location

Airport:

Trip Planner

Search our weather history database for the weather conditions in past years. The results will help you decide how hot, cold, wet, or windy it might be!

Date:

Astronomy

Apr. 09, 2013 Rise Set
Actual Time 6:45 AM CDT 7:46 PM CDT
Civil Twilight 6:17 AM CDT 8:14 PM CDT
Nautical Twilight 5:44 AM CDT 8:47 PM CDT
Astronomical Twilight 5:10 AM CDT 9:21 PM CDT
Moon 6:08 AM CDT (4/9) 7:23 PM CDT (4/9)
Length of Visible Light 13h 56m
Length of Day
13h 01m
Waning Crescent, 1% of the Moon is Illuminated
Apr 9
Waning Crescent
Apr 10
New
Apr 18
First Quarter
Apr 25
Full
May 2
Last Quarter

Hourly Weather History & Observations

Time (CDT) Temp. Dew Point Humidity Pressure Visibility Wind Dir Wind Speed Gust Speed Precip Events Conditions
12:52 AM 66.0 °F 57.9 °F 75% 29.73 in - SSE 6.9 mph - N/A   Unknown
1:52 AM 66.0 °F 57.9 °F 75% 29.72 in - SSE 6.9 mph - N/A   Unknown
2:52 AM 66.9 °F 57.0 °F 70% 29.69 in - SSE 8.1 mph - N/A   Unknown
3:52 AM 66.0 °F 57.0 °F 73% 29.69 in - SSE 8.1 mph - N/A   Unknown
4:52 AM 66.0 °F 57.0 °F 73% 29.68 in - SSE 8.1 mph - N/A   Unknown
5:52 AM 66.0 °F 57.0 °F 73% 29.69 in - SSE 8.1 mph - N/A   Unknown
6:52 AM 66.0 °F 57.0 °F 73% 29.70 in - SSE 9.2 mph - N/A   Unknown
7:52 AM 66.9 °F 57.0 °F 70% 29.70 in - SSE 8.1 mph 20.7 mph N/A   Unknown
8:52 AM 70.0 °F 57.9 °F 65% 29.70 in - South 12.7 mph 21.9 mph N/A   Unknown
9:52 AM 69.1 °F 57.9 °F 68% 29.75 in - SSW 8.1 mph - N/A   Unknown
10:52 AM 69.1 °F 57.0 °F 65% 29.76 in - SSW 15.0 mph 21.9 mph N/A   Unknown
11:52 AM 72.0 °F 59.0 °F 64% 29.74 in - South 20.7 mph 28.8 mph N/A   Unknown
12:52 PM 73.0 °F 60.1 °F 64% 29.75 in - South 16.1 mph 25.3 mph N/A   Unknown
1:52 PM 73.9 °F 60.1 °F 62% 29.74 in - SSW 13.8 mph 21.9 mph N/A   Unknown
2:52 PM 73.9 °F 60.1 °F 62% 29.72 in - South 16.1 mph 21.9 mph N/A   Unknown
3:52 PM 75.9 °F 60.1 °F 58% 29.71 in - South 13.8 mph 23.0 mph N/A   Unknown
4:52 PM 75.9 °F 60.1 °F 58% 29.69 in - South 15.0 mph 21.9 mph N/A   Unknown
5:52 PM 75.9 °F 60.1 °F 58% 29.70 in - South 12.7 mph - N/A   Unknown
6:52 PM 73.0 °F 60.1 °F 64% 29.73 in - South 8.1 mph - N/A   Unknown
7:52 PM 72.0 °F 60.1 °F 66% 29.72 in - South 10.4 mph - N/A   Unknown
8:52 PM 71.1 °F 60.1 °F 68% 29.74 in - SSE 5.8 mph - N/A   Unknown
9:52 PM 71.1 °F 60.1 °F 68% 29.73 in - SE 6.9 mph - N/A   Unknown
10:52 PM 71.1 °F 60.1 °F 68% 29.69 in - SE 5.8 mph - N/A   Unknown
11:52 PM 70.0 °F 61.0 °F 73% 29.68 in - SSE 6.9 mph - N/A   Unknown